Home   Weather   Mason   Past weeks

Flag for USA Past Weather in Mason, Ohio, USA — Yesterday and Last 2 Weeks

Now
61 °F

Sunny.


Feels Like: 61 °F
Forecast: 47 / 60 °F
Wind: 7 mph from Northeast

Location: Butler County Regional Airport

Current Time: Jan 22, 2017 at 1:47:21 pm

Latest Report: Jan 22, 2017 at 12:53 pm


Visibility: 10 mi

Pressure: 29.49 "Hg

Humidity: 75%

Dew Point: 53 °F

Location of MasonLocation

Past Weather in Mason — Graph

°F

Mason Temperature Yesterday

Maximum temperature yesterday: 63 °F (at 3:53 pm)
Minimum temperature yesterday: 42 °F (at 12:00 am)
Average temperature yesterday: 52 °F

High & Low Weather Summary for the Past Weeks

 TemperatureHumidityPressure
High67 °F (Jan 12, 9:53 am)100% (Jan 11, 3:53 am)30.80 "Hg (Jan 11, 3:53 am)
Low6 °F (Jan 8, 7:53 am)47% (Jan 8, 3:53 pm)29.55 "Hg (Jan 22, 11:53 am)
Average42 °F84%30.15 "Hg
* Reported Jan 7 11:53 am — Jan 22 11:53 am, Mason, Weather by CustomWeather, © 2017

Note: Actual official high and low records may vary slightly from our data, if they occured in-between our weather recording intervals... More about our weather records

Advertising

Mason Weather History for the Previous 24 Hours

Scroll right to see more
 ConditionsComfort  
Time TempWeatherWind HumidityBarometerVisibility
11:53 am
Sun, Jan 22
57 °FPassing clouds.5 mph83%29.55 "Hg10 mi
10:53 am54 °FSunny.3 mph93%29.59 "Hg9 mi
9:53 am50 °FSunny.5 mph96%29.59 "Hg9 mi
8:53 am45 °FFog.6 mph100%29.60 "Hg3 mi
8:34 am44 °FFog.No wind100%29.60 "Hg2 mi
8:04 am48 °FFog.6 mph100%29.60 "Hg4 mi
7:56 am42 °FFog.No wind100%29.60 "Hg2 mi
7:01 am38 °FFog.No wind100%29.60 "Hg0 mi
6:31 am38 °FPassing clouds.No wind100%29.60 "Hg7 mi
5:53 am38 °FFog.No wind100%29.59 "Hg3 mi
5:38 am39 °FFog.No wind100%29.58 "Hg2 mi
4:53 am39 °FFog.No wind100%29.59 "Hg0 mi
4:01 am39 °FFog.No wind100%29.58 "Hg1 mi
3:08 am44 °FFog.No wind100%29.60 "Hg1 mi
2:59 am43 °FFog.No wind100%29.61 "Hg1 mi
2:12 am45 °FFog.No wind100%29.63 "Hg0 mi
2:05 am45 °FFog.No wind100%29.63 "Hg1 mi
1:55 am48 °FFog.3 mph100%29.63 "Hg2 mi
12:53 am50 °FPassing clouds.3 mph100%29.65 "Hg8 mi
11:53 pm
Sat, Jan 21
51 °FPassing clouds.3 mph100%29.66 "Hg7 mi
10:53 pm50 °FPassing clouds.No wind100%29.66 "Hg8 mi
9:53 pm54 °FPartly cloudy.5 mph97%29.65 "Hg10 mi
8:53 pm56 °FOvercast.3 mph93%29.64 "Hg10 mi
7:53 pm56 °FOvercast.3 mph90%29.64 "Hg10 mi
6:53 pm60 °FMostly cloudy.No wind80%29.63 "Hg10 mi
5:53 pm61 °FOvercast.No wind78%29.62 "Hg10 mi
4:53 pm63 °FOvercast.5 mph73%29.63 "Hg10 mi
3:53 pm63 °FMostly cloudy.5 mph73%29.63 "Hg10 mi
2:53 pm62 °FScattered clouds.No wind75%29.63 "Hg10 mi
1:53 pm61 °FSunny.3 mph75%29.65 "Hg10 mi
Weather by CustomWeather, © 2017

See weather overviewHow to use our weather pages